Hourly Data Report for May 27, 2021

VINELAND STATION RCS
ONTARIO
Current Station Operator: ECCC - MSC

43°11'00.000" N
79°24'00.000" W
79.20 m
6139148
71171
XVN

Download Data

Hourly Data (May 2021)
Hourly Data Report for May 27, 2021
TIME
LST
Temp Definition
°C
Dew Point Definition
°C
Rel Hum Definition
%
Precip. Amount Definition
mm

Wind Dir Definition
10's deg

Wind Spd Definition
km/h
Visibility Definition
km
Stn Press Definition
kPa
Hmdx Definition


Wind Chill Definition


Weather Definition


00:00 13.1 7.8 70 0.0 30 16   100.66     LegendNANA
01:00 12.3 5.9 65 0.0 30 15   100.73     LegendNANA
02:00 11.2 5.3 67 0.0 30 15   100.74     LegendNANA
03:00 10.2 4.8 69 0.0 29 15   100.82     LegendNANA
04:00 9.8 4.9 72 0.0 29 13   100.86     LegendNANA
05:00 8.1 4.1 76 0.0 26 9   100.92     LegendNANA
06:00 10.0 5.2 72 0.0 31 13   101.00     LegendNANA
07:00 10.8 5.7 71 0.0 32 11   101.07     LegendNANA
08:00 12.2 6.9 70 0.0 34 11   101.11     LegendNANA
09:00 12.6 6.7 67 0.0 34 8   101.12     LegendNANA
10:00 13.2 4.8 57 0.0 4 5   101.15     LegendNANA
11:00 13.9 3.9 51 0.0 3 5   101.14     LegendNANA
12:00 14.7 4.9 52 0.0 5 9   101.09     LegendNANA
13:00 14.9 5.0 51 0.0 5 9   101.11     LegendNANA
14:00 15.6 4.4 47 0.0 4 10   101.05     LegendNANA
15:00 16.0 5.8 51 0.0 7 12   100.97     LegendNANA
16:00 15.4 4.7 49 0.0 7 10   100.94     LegendNANA
17:00 15.4 5.5 52 0.0 7 11   100.95     LegendNANA
18:00 15.4 5.7 52 0.0 7 10   100.96     LegendNANA
19:00 14.6 5.8 56 0.0 2 7   101.02     LegendNANA
20:00 13.6 2.1 46 0.0 35 15   101.04     LegendNANA
21:00 12.7 0.9 44 0.0 35 14   101.05     LegendNANA
22:00 12.1 5.3 63 0.0 36 16   101.03     LegendNANA
23:00 11.8 4.4 60 0.0 2 16   100.99     LegendNANA

Notes on Data Quality.

Legend

  • E = Estimated
  • M = Missing
  • NA = Not Available*
  • [empty] = Indicates an unobserved value
Date modified: